Tracking 20093 objects as of 15-Dec-2019
HD Live streaming from Space Station
objects crossing your sky now

COSMOS 894

Track COSMOS 894 now!
10-day predictions
COSMOS 894 is classified as:


NORAD ID: 9846
Int'l Code: 1977-013A
Perigee: 970.8 km
Apogee: 1,014.3 km
Inclination: 82.9 °
Period: 104.8 minutes
Semi major axis: 7363 km
RCS: 3.5762 m2 (large)
Launch date: February 21, 1977
Source: Commonwealth of Independent States (former USSR) (CIS)
Launch site: PLESETSK MISSILE AND SPACE COMPLEX (PKMTR)
aabbcc
Your satellite tracking list
Your tracking list is empty




NASA's NSSDC Master Catalog

Two Line Element Set (TLE):
1  9846U 77013A   19348.45263419  .00000050  00000-0  37704-4 0  9994
2  9846  82.9466  54.6619 0029515 351.2256  19.2061 13.73957387146037
Source of the keplerian elements: AFSPC